| time (UTC) | temp F | wind direction | speed MPH | gust MPH | rain 1hr in | rain 24hr in | rain mn in | humidity % | barometer mb |
| 20260903050001 | 81 | 27 | 1.0 | 6.0 | 0.00 | 0.00 | 0.00 | 84 | 1010.9 |
| 20260903044604 | 81 | 26 | 0.0 | 6.0 | 0.00 | 0.00 | 0.00 | 84 | 1011.1 |
| 20260903043056 | 81 | 27 | 0.0 | 5.0 | 0.00 | 0.00 | 0.00 | 84 | 1011.2 |
| 20260903041606 | 81 | 26 | 1.0 | 8.0 | 0.00 | 0.00 | 0.00 | 84 | 1011.1 |
| 20260903040058 | 81 | 26 | 0.0 | 3.0 | 0.00 | 0.00 | 0.00 | 84 | 1011.2 |
| 20260903034556 | 81 | 26 | 0.0 | 5.0 | 0.00 | 0.00 | 0.00 | 84 | 1011.2 |
| 20260903033049 | 81 | 26 | 1.0 | 6.0 | 0.00 | 0.00 | 0.00 | 83 | 1011.1 |
| 20260903031549 | 81 | 26 | 1.0 | 5.0 | 0.00 | 0.00 | 0.00 | 82 | 1010.9 |
| 20260903030047 | 81 | 26 | 0.0 | 3.0 | 0.00 | 0.00 | 0.00 | 82 | 1011.1 |
| 20260903024546 | 81 | 26 | 0.0 | 6.0 | 0.00 | 0.00 | 0.00 | 81 | 1010.9 |
| 20260903023048 | 80 | 26 | 0.0 | 8.0 | 0.00 | 0.00 | 0.00 | 81 | 1010.9 |
| 20260903021548 | 81 | 26 | 0.0 | 5.0 | 0.00 | 0.00 | 0.00 | 81 | 1010.7 |
| 20260903020042 | 81 | 26 | 0.0 | 2.0 | 0.00 | 0.00 | 0.00 | 82 | 1010.5 |
| 20260903014547 | 81 | 26 | 1.0 | 9.0 | 0.00 | 0.00 | 0.00 | 81 | 1010.4 |
| 20260903013045 | 82 | 9 | 0.0 | 3.0 | 0.00 | 0.00 | 0.00 | 79 | 1010.1 |
| 20260903011542 | 82 | 9 | 1.0 | 5.0 | 0.00 | 0.00 | 0.00 | 78 | 1010.0 |
| 20260903010040 | 83 | 9 | 1.0 | 5.0 | 0.00 | 0.00 | 0.00 | 77 | 1010.1 |
| 20260903004548 | 83 | 9 | 0.0 | 6.0 | 0.00 | 0.00 | 0.00 | 76 | 1010.0 |
| 20260903003037 | 84 | 19 | 2.0 | 9.0 | 0.00 | 0.00 | 0.00 | 75 | 1010.1 |
| 20260903001536 | 85 | 19 | 0.0 | 8.0 | 0.00 | 0.00 | 0.00 | 74 | 1009.9 |
| 20260903000044 | 86 | 19 | 2.0 | 10.0 | 0.00 | 0.00 | 0.00 | 71 | 1009.8 |
| 20260902234534 | 87 | 19 | 1.0 | 6.0 | 0.00 | 0.00 | 0.00 | 69 | 1009.9 |
| 20260902233034 | 87 | 19 | 1.0 | 8.0 | 0.00 | 0.00 | 0.00 | 68 | 1009.9 |
| 20260902231540 | 88 | 19 | 2.0 | 6.0 | 0.00 | 0.00 | 0.00 | 66 | 1009.9 |
| 20260902230026 | 89 | 19 | 0.0 | 11.0 | 0.00 | 0.00 | 0.00 | 64 | 1009.5 |
| 20260902224525 | 90 | 21 | 0.0 | 4.0 | 0.00 | 0.00 | 0.00 | 62 | 1009.5 |
| 20260902223124 | 92 | 21 | 1.0 | 6.0 | 0.00 | 0.00 | 0.00 | 60 | 1009.4 |
| 20260902221523 | 92 | 27 | 1.0 | 6.0 | 0.00 | 0.00 | 0.00 | 59 | 1009.4 |
| 20260902220023 | 92 | 27 | 0.0 | 4.0 | 0.00 | 0.00 | 0.00 | 61 | 1009.2 |
| 20260902214546 | 92 | 27 | 2.0 | 4.0 | 0.00 | 0.00 | 0.00 | 61 | 1009.4 |
| 20260902213019 | 92 | 27 | 2.0 | 9.0 | 0.00 | 0.00 | 0.00 | 59 | 1009.3 |
| 20260902211518 | 92 | 26 | 2.0 | 13.0 | 0.00 | 0.00 | 0.00 | 57 | 1009.4 |
| 20260902210017 | 93 | 22 | 1.0 | 6.0 | 0.00 | 0.00 | 0.00 | 58 | 1009.7 |
| 20260902204513 | 93 | 22 | 1.0 | 5.0 | 0.00 | 0.00 | 0.00 | 59 | 1009.9 |
| 20260902203012 | 94 | 22 | 1.0 | 5.0 | 0.00 | 0.00 | 0.00 | 57 | 1009.9 |
| 20260902201512 | 95 | 22 | 1.0 | 4.0 | 0.00 | 0.00 | 0.00 | 55 | 1009.8 |
| 20260902200013 | 95 | 22 | 2.0 | 5.0 | 0.00 | 0.00 | 0.00 | 54 | 1010.0 |
| 20260902194507 | 95 | 22 | 1.0 | 4.0 | 0.00 | 0.00 | 0.00 | 55 | 1010.1 |
| 20260902193006 | 97 | 22 | 1.0 | 5.0 | 0.00 | 0.00 | 0.00 | 53 | 1010.3 |
| 20260902191504 | 96 | 22 | 2.0 | 6.0 | 0.00 | 0.00 | 0.00 | 54 | 1010.5 |
| 20260902190003 | 95 | 21 | 1.0 | 6.0 | 0.00 | 0.00 | 0.00 | 54 | 1010.5 |
| 20260902184558 | 96 | 21 | 1.0 | 4.0 | 0.00 | 0.00 | 0.00 | 53 | 1010.7 |
| 20260902183056 | 96 | 21 | 1.0 | 5.0 | 0.00 | 0.00 | 0.00 | 53 | 1010.9 |
| 20260902181554 | 96 | 21 | 0.0 | 9.0 | 0.00 | 0.00 | 0.00 | 55 | 1011.2 |
| 20260902180051 | 95 | 19 | 1.0 | 6.0 | 0.00 | 0.00 | 0.00 | 56 | 1011.6 |
| 20260902174551 | 95 | 17 | 1.0 | 5.0 | 0.00 | 0.00 | 0.00 | 57 | 1011.9 |
| 20260902173043 | 94 | 17 | 2.0 | 5.0 | 0.00 | 0.00 | 0.00 | 59 | 1012.1 |
| 20260902171543 | 92 | 17 | 1.0 | 5.0 | 0.00 | 0.00 | 0.00 | 62 | 1012.4 |
| 20260902170041 | 93 | 17 | 1.0 | 5.0 | 0.00 | 0.00 | 0.00 | 60 | 1012.9 |
| 20260902164543 | 90 | 17 | 1.0 | 6.0 | 0.00 | 0.00 | 0.00 | 65 | 1013.0 |
| 20260902163133 | 91 | 17 | 0.0 | 5.0 | 0.00 | 0.00 | 0.00 | 68 | 1013.0 |
| 20260902161534 | 89 | 17 | 0.0 | 9.0 | 0.00 | 0.00 | 0.00 | 70 | 1013.1 |
| 20260902160028 | 88 | 15 | 1.0 | 5.0 | 0.00 | 0.00 | 0.00 | 72 | 1013.2 |
| 20260902154529 | 88 | 15 | 1.0 | 3.0 | 0.00 | 0.00 | 0.00 | 72 | 1013.1 |
| 20260902153030 | 87 | 15 | 0.0 | 4.0 | 0.00 | 0.00 | 0.00 | 74 | 1013.0 |
| 20260902151519 | 86 | 15 | 0.0 | 3.0 | 0.00 | 0.00 | 0.00 | 76 | 1013.1 |
| 20260902150020 | 85 | 15 | 0.0 | 3.0 | 0.00 | 0.00 | 0.00 | 78 | 1013.0 |
| 20260902144514 | 84 | 15 | 0.0 | 3.0 | 0.00 | 0.00 | 0.00 | 80 | 1013.1 |
| 20260902143014 | 83 | 15 | 0.0 | 3.0 | 0.00 | 0.00 | 0.00 | 82 | 1013.1 |
| 20260902141517 | 82 | 15 | 0.0 | 3.0 | 0.00 | 0.00 | 0.00 | 84 | 1013.3 |
| 20260902140010 | 81 | 15 | 0.0 | 2.0 | 0.00 | 0.00 | 0.00 | 85 | 1013.2 |
| 20260902134508 | 80 | 15 | 0.0 | 2.0 | 0.00 | 0.00 | 0.00 | 87 | 1013.0 |
| 20260902133009 | 79 | 15 | 0.0 | 3.0 | 0.00 | 0.00 | 0.00 | 89 | 1013.1 |
| 20260902131504 | 78 | 15 | 0.0 | 2.0 | 0.00 | 0.00 | 0.00 | 90 | 1013.0 |
| 20260902130012 | 77 | 15 | 0.0 | 1.0 | 0.00 | 0.00 | 0.00 | 91 | 1013.0 |
| 20260902124503 | 76 | 15 | 0.0 | 1.0 | 0.00 | 0.00 | 0.00 | 91 | 1012.9 |
| 20260902123005 | 76 | 15 | 0.0 | 0.0 | 0.00 | 0.00 | 0.00 | 91 | 1012.8 |
| 20260902121608 | 75 | 15 | 0.0 | 0.0 | 0.00 | 0.00 | 0.00 | 91 | 1012.8 |
| 20260902120057 | 76 | 15 | 0.0 | 0.0 | 0.00 | 0.00 | 0.00 | 90 | 1012.8 |
| 20260902114556 | 76 | 15 | 0.0 | 0.0 | 0.00 | 0.00 | 0.00 | 90 | 1012.7 |
| 20260902113103 | 76 | 15 | 0.0 | 0.0 | 0.00 | 0.00 | 0.00 | 89 | 1012.7 |
| 20260902111552 | 76 | 15 | 0.0 | 0.0 | 0.00 | 0.00 | 0.00 | 89 | 1012.5 |
| 20260902110050 | 76 | 15 | 0.0 | 0.0 | 0.00 | 0.00 | 0.00 | 88 | 1012.5 |
| 20260902104603 | 77 | 15 | 0.0 | 0.0 | 0.00 | 0.00 | 0.00 | 87 | 1012.5 |
| 20260902103058 | 77 | 15 | 0.0 | 0.0 | 0.00 | 0.00 | 0.00 | 87 | 1012.6 |
| 20260902101550 | 77 | 15 | 0.0 | 0.0 | 0.00 | 0.00 | 0.00 | 86 | 1012.5 |
| 20260902100043 | 78 | 15 | 0.0 | 0.0 | 0.00 | 0.00 | 0.00 | 85 | 1012.4 |
| 20260902094541 | 78 | 15 | 0.0 | 0.0 | 0.00 | 0.00 | 0.00 | 85 | 1012.4 |
| 20260902093043 | 78 | 15 | 0.0 | 0.0 | 0.00 | 0.00 | 0.00 | 84 | 1012.3 |
| 20260902091507 | 78 | 15 | 0.0 | 0.0 | 0.00 | 0.00 | 0.00 | 83 | 1012.2 |
| 20260902090008 | 79 | 15 | 0.0 | 0.0 | 0.00 | 0.00 | 0.00 | 83 | 1012.3 |
| 20260902084503 | 79 | 15 | 0.0 | 1.0 | 0.00 | 0.00 | 0.00 | 82 | 1012.2 |
| 20260902083002 | 80 | 15 | 0.0 | 1.0 | 0.00 | 0.00 | 0.00 | 82 | 1012.3 |
| 20260902081502 | 80 | 15 | 0.0 | 1.0 | 0.00 | 0.00 | 0.00 | 82 | 1012.4 |
| 20260902080002 | 80 | 15 | 0.0 | 2.0 | 0.00 | 0.00 | 0.00 | 81 | 1012.3 |
| 20260902074621 | 79 | 15 | 0.0 | 1.0 | 0.00 | 0.00 | 0.00 | 81 | 1012.6 |
| 20260902073058 | 80 | 15 | 0.0 | 0.0 | 0.00 | 0.00 | 0.00 | 81 | 1012.5 |
| 20260902071556 | 80 | 15 | 0.0 | 1.0 | 0.00 | 0.00 | 0.00 | 80 | 1012.5 |
| 20260902070054 | 80 | 15 | 0.0 | 0.0 | 0.00 | 0.00 | 0.00 | 80 | 1012.5 |
| 20260902064554 | 81 | 15 | 0.0 | 0.0 | 0.00 | 0.00 | 0.00 | 78 | 1012.7 |
| 20260902063049 | 81 | 15 | 0.0 | 0.0 | 0.00 | 0.00 | 0.00 | 78 | 1012.6 |
| 20260902061553 | 81 | 15 | 0.0 | 0.0 | 0.00 | 0.00 | 0.00 | 77 | 1012.5 |
| 20260902060050 | 82 | 15 | 0.0 | 1.0 | 0.00 | 0.00 | 0.00 | 77 | 1012.6 |
| 20260902054545 | 82 | 15 | 0.0 | 0.0 | 0.00 | 0.00 | 0.00 | 76 | 1012.6 |
| 20260902053013 | 82 | 15 | 0.0 | 1.0 | 0.00 | 0.00 | 0.00 | 75 | 1012.6 |
| 20260902051511 | 83 | 15 | 0.0 | 0.0 | 0.00 | 0.00 | 0.00 | 74 | 1012.6 |